User: anonymous   Login
Location: Newark
(55.7083°N, 13.1992°E)
Time: 01:21:30
(UTC+00:00)
Language:

CUTE-I - Orbit

View from above orbital plane
View from above orbital plane
View from above satellite
View from above satellite

Ground track
Ground track

The orbit data is extracted from the following two-line orbital elements,

1 27844U 03031E   20093.03044840 +.00000058 +00000-0 +45896-4 0  9998
2 27844 098.6845 101.9113 0008688 277.6175 082.4016 14.22228936869236
Epoch (UTC): 02 April 2020 00:43:50
Eccentricity: 0.0008688
inclination: 98.6845°
perigee height: 811 km
apogee height: 824 km
right ascension of ascending node: 101.9113°
argument of perigee: 277.6175°
revolutions per day: 14.22228936
mean anomaly at epoch: 82.4016°
orbit number at epoch: 86923

The dashed part of the orbit path shows where the satellite is in the earth's shadow,  

DLR